SITE: BDASn,YEAR: 2010,,,,,,
2010date,time,pzhd (cm),gw temp (C),DWT (cm),WT elev (m),,
01/01/10,0:00,256.8,13.0,109.5,1372.426,,Depth to water table:
01/01/10,0:30,257.0,13.0,109.3,1372.428,,DWT = SCL - CH - h (all values in cm)
01/01/10,1:00,256.7,13.0,109.6,1372.425,,where
01/01/10,1:30,257.3,13.0,109.0,1372.431,,SCL = sensor cable length = 493.3 cm
01/01/10,2:00,257.4,13.0,108.9,1372.432,,CH = casing height of well = 127.0 cm
01/01/10,2:30,257.7,13.0,108.6,1372.435,,h = height of water above sensor (from pzhd column)
01/01/10,3:00,258.3,13.0,108.0,1372.441,,
01/01/10,3:30,257.4,13.0,108.9,1372.432,,WT elevation:
01/01/10,4:00,258.0,12.9,108.3,1372.438,,Sensor elev = 1369.858 m asl
01/01/10,4:30,257.1,13.0,109.2,1372.429,,WT elev = sensor elev + h (from pzhd column)
01/01/10,5:00,257.3,12.9,109.0,1372.431,,
01/01/10,5:30,257.5,13.0,108.8,1372.433,,
01/01/10,6:00,257.9,12.9,108.4,1372.437,,Dates with missing data (# 0.5 hr data points):
01/01/10,6:30,257.7,12.9,108.6,1372.435,,3/31 (1).
01/01/10,7:00,257.7,12.9,108.6,1372.435,,
01/01/10,7:30,257.8,13.0,108.5,1372.436,,
01/01/10,8:00,257.8,12.9,108.5,1372.436,,Dates w/missing T data:
01/01/10,8:30,257.9,12.9,108.4,1372.437,,"Jan 22, Feb 12, 13, Mar 13, May 13, Jun 21, 22,"
01/01/10,9:00,257.7,12.9,108.6,1372.435,,"Aug 2, Sep 28, Dec 6, 23."
01/01/10,9:30,258.1,12.9,108.2,1372.439,,
01/01/10,10:00,257.5,12.9,108.8,1372.433,,
01/01/10,10:30,257.2,12.9,109.1,1372.430,,
01/01/10,11:00,257.0,12.9,109.3,1372.428,,
01/01/10,11:30,257.2,12.9,109.1,1372.430,,
01/01/10,12:00,257.7,13.0,108.6,1372.435,,
01/01/10,12:30,258.0,12.9,108.3,1372.438,,
01/01/10,13:00,258.0,12.9,108.3,1372.438,,
01/01/10,13:30,258.1,12.9,108.2,1372.439,,
01/01/10,14:00,258.7,12.9,107.6,1372.445,,
01/01/10,14:30,258.9,12.9,107.4,1372.447,,
01/01/10,15:00,258.4,12.9,107.9,1372.442,,
01/01/10,15:30,259.1,12.9,107.2,1372.449,,
01/01/10,16:00,258.5,12.9,107.8,1372.443,,
01/01/10,16:30,259.1,12.9,107.2,1372.449,,
01/01/10,17:00,258.8,12.9,107.5,1372.446,,
01/01/10,17:30,258.7,12.9,107.6,1372.445,,
01/01/10,18:00,259.3,12.9,107.0,1372.451,,
01/01/10,18:30,259.0,12.9,107.3,1372.448,,
01/01/10,19:00,258.6,12.9,107.7,1372.444,,
01/01/10,19:30,258.6,12.9,107.7,1372.444,,
01/01/10,20:00,258.0,12.9,108.3,1372.438,,
01/01/10,20:30,258.6,12.9,107.7,1372.444,,
01/01/10,21:00,258.6,12.9,107.7,1372.444,,
01/01/10,21:30,258.2,12.9,108.1,1372.440,,
01/01/10,22:00,257.7,12.9,108.6,1372.435,,
01/01/10,22:30,258.6,12.9,107.7,1372.444,,
01/01/10,23:00,258.1,12.9,108.2,1372.439,,
01/01/10,23:30,257.7,12.9,108.6,1372.435,,
01/02/10,0:00,258.0,12.9,108.3,1372.438,,
01/02/10,0:30,258.0,12.9,108.3,1372.438,,
01/02/10,1:00,258.1,12.9,108.2,1372.439,,
01/02/10,1:30,258.5,12.9,107.8,1372.443,,
01/02/10,2:00,258.5,12.9,107.8,1372.443,,
01/02/10,2:30,258.6,12.9,107.7,1372.444,,
01/02/10,3:00,258.3,12.9,108.0,1372.441,,
01/02/10,3:30,258.2,12.9,108.1,1372.440,,
01/02/10,4:00,258.6,12.9,107.7,1372.444,,
01/02/10,4:30,258.6,12.9,107.7,1372.444,,
01/02/10,5:00,258.7,12.9,107.6,1372.445,,
01/02/10,5:30,258.5,12.9,107.8,1372.443,,
01/02/10,6:00,258.7,12.9,107.6,1372.445,,
01/02/10,6:30,258.8,12.9,107.5,1372.446,,
01/02/10,7:00,258.9,12.9,107.4,1372.447,,
01/02/10,7:30,258.7,12.9,107.6,1372.445,,
01/02/10,8:00,258.9,12.9,107.4,1372.447,,
01/02/10,8:30,258.9,12.9,107.4,1372.447,,
01/02/10,9:00,258.7,12.9,107.6,1372.445,,
01/02/10,9:30,258.9,12.9,107.4,1372.447,,
01/02/10,10:00,258.2,12.9,108.1,1372.440,,
01/02/10,10:30,258.0,12.9,108.3,1372.438,,
01/02/10,11:00,258.5,12.9,107.8,1372.443,,
01/02/10,11:30,258.1,12.9,108.2,1372.439,,
01/02/10,12:00,258.5,12.9,107.8,1372.443,,
01/02/10,12:30,258.3,12.9,108.0,1372.441,,
01/02/10,13:00,258.7,12.9,107.6,1372.445,,
01/02/10,13:30,259.1,12.9,107.2,1372.449,,
01/02/10,14:00,258.9,12.9,107.4,1372.447,,
01/02/10,14:30,258.7,12.9,107.6,1372.445,,
01/02/10,15:00,259.3,12.9,107.0,1372.451,,
01/02/10,15:30,259.0,12.9,107.3,1372.448,,
01/02/10,16:00,258.8,12.9,107.5,1372.446,,
01/02/10,16:30,258.9,12.9,107.4,1372.447,,
01/02/10,17:00,259.3,12.9,107.0,1372.451,,
01/02/10,17:30,258.6,12.9,107.7,1372.444,,
01/02/10,18:00,258.9,12.9,107.4,1372.447,,
01/02/10,18:30,259.0,12.9,107.3,1372.448,,
01/02/10,19:00,258.6,12.9,107.7,1372.444,,
01/02/10,19:30,258.7,12.9,107.6,1372.445,,
01/02/10,20:00,258.0,12.9,108.3,1372.438,,
01/02/10,20:30,257.9,12.9,108.4,1372.437,,
01/02/10,21:00,258.4,12.9,107.9,1372.442,,
01/02/10,21:30,258.3,12.9,108.0,1372.441,,
01/02/10,22:00,258.2,12.9,108.1,1372.440,,
01/02/10,22:30,257.7,12.9,108.6,1372.435,,
01/02/10,23:00,257.4,12.9,108.9,1372.432,,
01/02/10,23:30,258.0,12.9,108.3,1372.438,,
01/03/10,0:00,258.1,12.9,108.2,1372.439,,
01/03/10,0:30,258.1,12.9,108.2,1372.439,,
01/03/10,1:00,257.9,12.9,108.4,1372.437,,
01/03/10,1:30,258.2,12.9,108.1,1372.440,,
01/03/10,2:00,258.0,12.9,108.3,1372.438,,
01/03/10,2:30,258.4,12.9,107.9,1372.442,,
01/03/10,3:00,258.1,12.9,108.2,1372.439,,
01/03/10,3:30,258.5,12.9,107.8,1372.443,,
01/03/10,4:00,258.3,12.9,108.0,1372.441,,
01/03/10,4:30,258.8,12.9,107.5,1372.446,,
01/03/10,5:00,258.6,12.9,107.7,1372.444,,
01/03/10,5:30,258.1,12.9,108.2,1372.439,,
01/03/10,6:00,258.6,12.9,107.7,1372.444,,
01/03/10,6:30,258.6,12.9,107.7,1372.444,,
01/03/10,7:00,258.7,12.9,107.6,1372.445,,
01/03/10,7:30,258.4,12.9,107.9,1372.442,,
01/03/10,8:00,258.2,12.9,108.1,1372.440,,
01/03/10,8:30,258.3,12.9,108.0,1372.441,,
01/03/10,9:00,258.4,12.9,107.9,1372.442,,
01/03/10,9:30,258.6,12.9,107.7,1372.444,,
01/03/10,10:00,259.2,12.9,107.1,1372.450,,
01/03/10,10:30,258.3,12.9,108.0,1372.441,,
01/03/10,11:00,258.6,12.8,107.7,1372.444,,
01/03/10,11:30,258.3,12.9,108.0,1372.441,,
01/03/10,12:00,258.3,12.9,108.0,1372.441,,
01/03/10,12:30,258.3,12.9,108.0,1372.441,,
01/03/10,13:00,258.0,12.8,108.3,1372.438,,
01/03/10,13:30,258.3,12.9,108.0,1372.441,,
01/03/10,14:00,258.3,12.9,108.0,1372.441,,
01/03/10,14:30,258.0,12.8,108.3,1372.438,,
01/03/10,15:00,258.1,12.8,108.2,1372.439,,
01/03/10,15:30,258.1,12.8,108.2,1372.439,,
01/03/10,16:00,258.1,12.8,108.2,1372.439,,
01/03/10,16:30,258.7,12.9,107.6,1372.445,,
01/03/10,17:00,258.2,12.9,108.1,1372.440,,
01/03/10,17:30,258.3,12.9,108.0,1372.441,,
01/03/10,18:00,258.9,12.8,107.4,1372.447,,
01/03/10,18:30,259.2,12.8,107.1,1372.450,,
01/03/10,19:00,258.8,12.9,107.5,1372.446,,
01/03/10,19:30,258.6,12.9,107.7,1372.444,,
01/03/10,20:00,258.3,12.8,108.0,1372.441,,
01/03/10,20:30,258.4,12.8,107.9,1372.442,,
01/03/10,21:00,257.8,12.9,108.5,1372.436,,
01/03/10,21:30,258.2,12.8,108.1,1372.440,,
01/03/10,22:00,257.9,12.8,108.4,1372.437,,
01/03/10,22:30,258.8,12.8,107.5,1372.446,,
01/03/10,23:00,258.2,12.8,108.1,1372.440,,
01/03/10,23:30,258.7,12.8,107.6,1372.445,,
01/04/10,0:00,258.4,12.8,107.9,1372.442,,
01/04/10,0:30,258.1,12.8,108.2,1372.439,,
01/04/10,1:00,258.8,12.9,107.5,1372.446,,
01/04/10,1:30,258.4,12.8,107.9,1372.442,,
01/04/10,2:00,258.3,12.8,108.0,1372.441,,
01/04/10,2:30,259.0,12.8,107.3,1372.448,,
01/04/10,3:00,258.6,12.8,107.7,1372.444,,
01/04/10,3:30,259.0,12.8,107.3,1372.448,,
01/04/10,4:00,258.3,12.8,108.0,1372.441,,
01/04/10,4:30,258.6,12.8,107.7,1372.444,,
01/04/10,5:00,257.9,12.8,108.4,1372.437,,
01/04/10,5:30,258.5,12.8,107.8,1372.443,,
01/04/10,6:00,258.1,12.8,108.2,1372.439,,
01/04/10,6:30,257.9,12.8,108.4,1372.437,,
01/04/10,7:00,258.2,12.8,108.1,1372.440,,
01/04/10,7:30,258.6,12.8,107.7,1372.444,,
01/04/10,8:00,258.3,12.8,108.0,1372.441,,
01/04/10,8:30,258.2,12.8,108.1,1372.440,,
01/04/10,9:00,258.2,12.8,108.1,1372.440,,
01/04/10,9:30,258.6,12.8,107.7,1372.444,,
01/04/10,10:00,257.7,12.8,108.6,1372.435,,
01/04/10,10:30,257.8,12.8,108.5,1372.436,,
01/04/10,11:00,257.7,12.8,108.6,1372.435,,
01/04/10,11:30,257.5,12.8,108.8,1372.433,,
01/04/10,12:00,258.6,12.8,107.7,1372.444,,
01/04/10,12:30,258.4,12.8,107.9,1372.442,,
01/04/10,13:00,258.7,12.8,107.6,1372.445,,
01/04/10,13:30,259.3,12.8,107.0,1372.451,,
01/04/10,14:00,259.1,12.8,107.2,1372.449,,
01/04/10,14:30,258.9,12.8,107.4,1372.447,,
01/04/10,15:00,259.5,12.8,106.8,1372.453,,
01/04/10,15:30,259.4,12.8,106.9,1372.452,,
01/04/10,16:00,259.1,12.8,107.2,1372.449,,
01/04/10,16:30,259.5,12.8,106.8,1372.453,,
01/04/10,17:00,259.3,12.8,107.0,1372.451,,
01/04/10,17:30,259.2,12.8,107.1,1372.450,,
01/04/10,18:00,259.4,12.8,106.9,1372.452,,
01/04/10,18:30,259.5,12.8,106.8,1372.453,,
01/04/10,19:00,259.2,12.8,107.1,1372.450,,
01/04/10,19:30,259.1,12.8,107.2,1372.449,,
01/04/10,20:00,259.6,12.8,106.7,1372.454,,
01/04/10,20:30,258.8,12.8,107.5,1372.446,,
01/04/10,21:00,259.1,12.8,107.2,1372.449,,
01/04/10,21:30,259.1,12.8,107.2,1372.449,,
01/04/10,22:00,259.2,12.8,107.1,1372.450,,
01/04/10,22:30,259.0,12.8,107.3,1372.448,,
01/04/10,23:00,258.9,12.8,107.4,1372.447,,
01/04/10,23:30,259.1,12.8,107.2,1372.449,,
01/05/10,0:00,259.4,12.8,106.9,1372.452,,
01/05/10,0:30,258.7,12.8,107.6,1372.445,,
01/05/10,1:00,259.0,12.8,107.3,1372.448,,
01/05/10,1:30,258.8,12.8,107.5,1372.446,,
01/05/10,2:00,258.5,12.8,107.8,1372.443,,
01/05/10,2:30,259.1,12.8,107.2,1372.449,,
01/05/10,3:00,259.1,12.8,107.2,1372.449,,
01/05/10,3:30,259.0,12.8,107.3,1372.448,,
01/05/10,4:00,259.1,12.8,107.2,1372.449,,
01/05/10,4:30,258.9,12.8,107.4,1372.447,,
01/05/10,5:00,259.2,12.8,107.1,1372.450,,
01/05/10,5:30,259.0,12.8,107.3,1372.448,,
01/05/10,6:00,259.6,12.8,106.7,1372.454,,
01/05/10,6:30,259.3,12.8,107.0,1372.451,,
01/05/10,7:00,259.3,12.8,107.0,1372.451,,
01/05/10,7:30,259.5,12.8,106.8,1372.453,,
01/05/10,8:00,259.1,12.8,107.2,1372.449,,
01/05/10,8:30,259.5,12.8,106.8,1372.453,,
01/05/10,9:00,259.2,12.8,107.1,1372.450,,
01/05/10,9:30,259.6,12.8,106.7,1372.454,,
01/05/10,10:00,258.3,12.8,108.0,1372.441,,
01/05/10,10:30,258.7,12.8,107.6,1372.445,,
01/05/10,11:00,259.1,12.8,107.2,1372.449,,
01/05/10,11:30,259.1,12.8,107.2,1372.449,,
01/05/10,12:00,259.2,12.8,107.1,1372.450,,
01/05/10,12:30,259.6,12.8,106.7,1372.454,,
01/05/10,13:00,259.6,12.8,106.7,1372.454,,
01/05/10,13:30,259.7,12.8,106.6,1372.455,,
01/05/10,14:00,259.6,12.8,106.7,1372.454,,
01/05/10,14:30,259.3,12.8,107.0,1372.451,,
01/05/10,15:00,259.6,12.8,106.7,1372.454,,
01/05/10,15:30,259.4,12.8,106.9,1372.452,,
01/05/10,16:00,258.9,12.8,107.4,1372.447,,
01/05/10,16:30,259.4,12.8,106.9,1372.452,,
01/05/10,17:00,259.5,12.8,106.8,1372.453,,
01/05/10,17:30,260.0,12.8,106.3,1372.458,,
01/05/10,18:00,260.1,12.8,106.2,1372.459,,
01/05/10,18:30,259.9,12.8,106.4,1372.457,,
01/05/10,19:00,259.9,12.8,106.4,1372.457,,
01/05/10,19:30,259.7,12.8,106.6,1372.455,,
01/05/10,20:00,259.7,12.8,106.6,1372.455,,
01/05/10,20:30,259.2,12.8,107.1,1372.450,,
01/05/10,21:00,260.0,12.7,106.3,1372.458,,
01/05/10,21:30,259.5,12.8,106.8,1372.453,,
01/05/10,22:00,259.9,12.7,106.4,1372.457,,
01/05/10,22:30,259.5,12.8,106.8,1372.453,,
01/05/10,23:00,259.3,12.8,107.0,1372.451,,
01/05/10,23:30,259.4,12.7,106.9,1372.452,,
01/06/10,0:00,259.3,12.8,107.0,1372.451,,
01/06/10,0:30,259.4,12.8,106.9,1372.452,,
01/06/10,1:00,259.3,12.7,107.0,1372.451,,
01/06/10,1:30,258.9,12.7,107.4,1372.447,,
01/06/10,2:00,259.6,12.7,106.7,1372.454,,
01/06/10,2:30,259.5,12.7,106.8,1372.453,,
01/06/10,3:00,259.7,12.7,106.6,1372.455,,
01/06/10,3:30,259.6,12.7,106.7,1372.454,,
01/06/10,4:00,260.1,12.7,106.2,1372.459,,
01/06/10,4:30,259.8,12.7,106.5,1372.456,,
01/06/10,5:00,259.9,12.8,106.4,1372.457,,
01/06/10,5:30,259.9,12.8,106.4,1372.457,,
01/06/10,6:00,259.3,12.7,107.0,1372.451,,
01/06/10,6:30,259.2,12.8,107.1,1372.450,,
01/06/10,7:00,259.3,12.7,107.0,1372.451,,
01/06/10,7:30,259.7,12.7,106.6,1372.455,,
01/06/10,8:00,260.6,12.7,105.7,1372.464,,
01/06/10,8:30,260.0,12.7,106.3,1372.458,,
01/06/10,9:00,259.8,12.8,106.5,1372.456,,
01/06/10,9:30,259.7,12.7,106.6,1372.455,,
01/06/10,10:00,259.2,12.7,107.1,1372.450,,
01/06/10,10:30,259.2,12.7,107.1,1372.450,,
01/06/10,11:00,259.0,12.7,107.3,1372.448,,
01/06/10,11:30,259.0,12.7,107.3,1372.448,,
01/06/10,12:00,259.0,12.7,107.3,1372.448,,
01/06/10,12:30,259.7,12.7,106.6,1372.455,,
01/06/10,13:00,260.0,12.7,106.3,1372.458,,
01/06/10,13:30,260.5,12.7,105.8,1372.463,,
01/06/10,14:00,260.5,12.7,105.8,1372.463,,
01/06/10,14:30,261.1,12.7,105.2,1372.469,,
01/06/10,15:00,261.0,12.7,105.3,1372.468,,
01/06/10,15:30,260.1,12.7,106.2,1372.459,,
01/06/10,16:00,259.6,12.8,106.7,1372.454,,
01/06/10,16:30,260.5,12.7,105.8,1372.463,,
01/06/10,17:00,260.1,12.7,106.2,1372.459,,
01/06/10,17:30,260.2,12.7,106.1,1372.460,,
01/06/10,18:00,260.1,12.7,106.2,1372.459,,
01/06/10,18:30,260.2,12.7,106.1,1372.460,,
01/06/10,19:00,259.8,12.8,106.5,1372.456,,
01/06/10,19:30,260.0,12.7,106.3,1372.458,,
01/06/10,20:00,259.7,12.7,106.6,1372.455,,
01/06/10,20:30,259.6,12.7,106.7,1372.454,,
01/06/10,21:00,259.7,12.7,106.6,1372.455,,
01/06/10,21:30,260.4,12.7,105.9,1372.462,,
01/06/10,22:00,259.9,12.7,106.4,1372.457,,
01/06/10,22:30,259.7,12.7,106.6,1372.455,,
01/06/10,23:00,260.5,12.7,105.8,1372.463,,
01/06/10,23:30,259.6,12.7,106.7,1372.454,,
01/07/10,0:00,259.7,12.7,106.6,1372.455,,
01/07/10,0:30,259.7,12.7,106.6,1372.455,,
01/07/10,1:00,259.7,12.7,106.6,1372.455,,
01/07/10,1:30,260.1,12.7,106.2,1372.459,,
01/07/10,2:00,260.3,12.7,106.0,1372.461,,
01/07/10,2:30,260.6,12.7,105.7,1372.464,,
01/07/10,3:00,259.8,12.7,106.5,1372.456,,
01/07/10,3:30,260.5,12.7,105.8,1372.463,,
01/07/10,4:00,260.6,12.7,105.7,1372.464,,
01/07/10,4:30,259.8,12.7,106.5,1372.456,,
01/07/10,5:00,259.6,12.7,106.7,1372.454,,
01/07/10,5:30,259.6,12.7,106.7,1372.454,,
01/07/10,6:00,260.1,12.7,106.2,1372.459,,
01/07/10,6:30,259.5,12.7,106.8,1372.453,,
01/07/10,7:00,259.4,12.7,106.9,1372.452,,
01/07/10,7:30,259.8,12.7,106.5,1372.456,,
01/07/10,8:00,259.6,12.7,106.7,1372.454,,
01/07/10,8:30,259.5,12.7,106.8,1372.453,,
01/07/10,9:00,259.4,12.7,106.9,1372.452,,
01/07/10,9:30,259.7,12.7,106.6,1372.455,,
01/07/10,10:00,259.3,12.7,107.0,1372.451,,
01/07/10,10:30,259.2,12.7,107.1,1372.450,,
01/07/10,11:00,259.3,12.7,107.0,1372.451,,
01/07/10,11:30,258.6,12.7,107.7,1372.444,,
01/07/10,12:00,259.1,12.7,107.2,1372.449,,
01/07/10,12:30,259.1,12.7,107.2,1372.449,,
01/07/10,13:00,259.2,12.8,107.1,1372.450,,
01/07/10,13:30,259.5,12.7,106.8,1372.453,,
01/07/10,14:00,260.0,12.7,106.3,1372.458,,
01/07/10,14:30,259.7,12.7,106.6,1372.455,,
01/07/10,15:00,259.9,12.7,106.4,1372.457,,
01/07/10,15:30,260.5,12.7,105.8,1372.463,,
01/07/10,16:00,260.3,12.7,106.0,1372.461,,
01/07/10,16:30,260.0,12.7,106.3,1372.458,,
01/07/10,17:00,259.4,12.7,106.9,1372.452,,
01/07/10,17:30,260.2,12.7,106.1,1372.460,,
01/07/10,18:00,259.8,12.7,106.5,1372.456,,
01/07/10,18:30,259.7,12.7,106.6,1372.455,,
01/07/10,19:00,259.6,12.7,106.7,1372.454,,
01/07/10,19:30,259.6,12.7,106.7,1372.454,,
01/07/10,20:00,258.9,12.7,107.4,1372.447,,
01/07/10,20:30,259.3,12.7,107.0,1372.451,,
01/07/10,21:00,259.1,12.7,107.2,1372.449,,
01/07/10,21:30,259.1,12.7,107.2,1372.449,,
01/07/10,22:00,258.9,12.7,107.4,1372.447,,
01/07/10,22:30,259.2,12.7,107.1,1372.450,,
01/07/10,23:00,259.7,12.7,106.6,1372.455,,
01/07/10,23:30,259.3,12.7,107.0,1372.451,,
01/08/10,0:00,259.4,12.7,106.9,1372.452,,
01/08/10,0:30,259.1,12.7,107.2,1372.449,,
01/08/10,1:00,259.3,12.7,107.0,1372.451,,
01/08/10,1:30,259.5,12.7,106.8,1372.453,,
01/08/10,2:00,259.7,12.7,106.6,1372.455,,
01/08/10,2:30,259.9,12.7,106.4,1372.457,,
01/08/10,3:00,260.1,12.7,106.2,1372.459,,
01/08/10,3:30,259.7,12.7,106.6,1372.455,,
01/08/10,4:00,259.5,12.7,106.8,1372.453,,
01/08/10,4:30,259.5,12.7,106.8,1372.453,,
01/08/10,5:00,259.8,12.7,106.5,1372.456,,
01/08/10,5:30,259.3,12.7,107.0,1372.451,,
01/08/10,6:00,259.9,12.7,106.4,1372.457,,
01/08/10,6:30,259.5,12.7,106.8,1372.453,,
01/08/10,7:00,260.0,12.7,106.3,1372.458,,
01/08/10,7:30,259.9,12.7,106.4,1372.457,,
01/08/10,8:00,259.0,12.7,107.3,1372.448,,
01/08/10,8:30,258.9,12.7,107.4,1372.447,,
01/08/10,9:00,259.0,12.7,107.3,1372.448,,
01/08/10,9:30,258.9,12.7,107.4,1372.447,,
01/08/10,10:00,259.6,12.7,106.7,1372.454,,
01/08/10,10:30,259.5,12.7,106.8,1372.453,,
01/08/10,11:00,258.9,12.7,107.4,1372.447,,
01/08/10,11:30,259.1,12.7,107.2,1372.449,,
01/08/10,12:00,259.3,12.7,107.0,1372.451,,
01/08/10,12:30,259.2,12.7,107.1,1372.450,,
01/08/10,13:00,259.5,12.7,106.8,1372.453,,
01/08/10,13:30,259.7,12.7,106.6,1372.455,,
01/08/10,14:00,260.0,12.7,106.3,1372.458,,
01/08/10,14:30,259.4,12.7,106.9,1372.452,,
01/08/10,15:00,259.8,12.7,106.5,1372.456,,
01/08/10,15:30,260.3,12.7,106.0,1372.461,,
01/08/10,16:00,260.6,12.7,105.7,1372.464,,
01/08/10,16:30,260.1,12.7,106.2,1372.459,,
01/08/10,17:00,260.0,12.7,106.3,1372.458,,
01/08/10,17:30,260.1,12.7,106.2,1372.459,,
01/08/10,18:00,260.3,12.7,106.0,1372.461,,
01/08/10,18:30,260.4,12.7,105.9,1372.462,,
01/08/10,19:00,259.8,12.7,106.5,1372.456,,
01/08/10,19:30,259.6,12.7,106.7,1372.454,,
01/08/10,20:00,259.1,12.7,107.2,1372.449,,
01/08/10,20:30,259.1,12.7,107.2,1372.449,,
01/08/10,21:00,259.0,12.7,107.3,1372.448,,
01/08/10,21:30,258.8,12.7,107.5,1372.446,,
01/08/10,22:00,258.7,12.7,107.6,1372.445,,
01/08/10,22:30,258.6,12.7,107.7,1372.444,,
01/08/10,23:00,258.0,12.7,108.3,1372.438,,
01/08/10,23:30,258.4,12.7,107.9,1372.442,,
01/09/10,0:00,258.0,12.7,108.3,1372.438,,
01/09/10,0:30,258.4,12.7,107.9,1372.442,,
01/09/10,1:00,259.1,12.7,107.2,1372.449,,
01/09/10,1:30,258.8,12.7,107.5,1372.446,,
01/09/10,2:00,259.1,12.7,107.2,1372.449,,
01/09/10,2:30,259.7,12.7,106.6,1372.455,,
01/09/10,3:00,259.2,12.7,107.1,1372.450,,
01/09/10,3:30,259.0,12.7,107.3,1372.448,,
01/09/10,4:00,259.3,12.7,107.0,1372.451,,
01/09/10,4:30,259.1,12.7,107.2,1372.449,,
01/09/10,5:00,258.9,12.7,107.4,1372.447,,
01/09/10,5:30,259.3,12.7,107.0,1372.451,,
01/09/10,6:00,259.4,12.7,106.9,1372.452,,
01/09/10,6:30,259.5,12.7,106.8,1372.453,,
01/09/10,7:00,259.7,12.7,106.6,1372.455,,
01/09/10,7:30,259.7,12.7,106.6,1372.455,,
01/09/10,8:00,259.6,12.7,106.7,1372.454,,
01/09/10,8:30,259.2,12.7,107.1,1372.450,,
01/09/10,9:00,260.0,12.7,106.3,1372.458,,
01/09/10,9:30,259.1,12.7,107.2,1372.449,,
01/09/10,10:00,258.6,12.7,107.7,1372.444,,
01/09/10,10:30,258.0,12.7,108.3,1372.438,,
01/09/10,11:00,258.8,12.7,107.5,1372.446,,
01/09/10,11:30,259.2,12.7,107.1,1372.450,,
01/09/10,12:00,259.6,12.7,106.7,1372.454,,
01/09/10,12:30,259.2,12.7,107.1,1372.450,,
01/09/10,13:00,259.7,12.7,106.6,1372.455,,
01/09/10,13:30,259.9,12.7,106.4,1372.457,,
01/09/10,14:00,259.9,12.7,106.4,1372.457,,
01/09/10,14:30,260.1,12.7,106.2,1372.459,,
01/09/10,15:00,260.2,12.7,106.1,1372.460,,
01/09/10,15:30,260.0,12.7,106.3,1372.458,,
01/09/10,16:00,260.4,12.7,105.9,1372.462,,
01/09/10,16:30,260.5,12.7,105.8,1372.463,,
01/09/10,17:00,260.1,12.7,106.2,1372.459,,
01/09/10,17:30,260.3,12.7,106.0,1372.461,,
01/09/10,18:00,260.6,12.7,105.7,1372.464,,
01/09/10,18:30,260.4,12.7,105.9,1372.462,,
01/09/10,19:00,260.4,12.7,105.9,1372.462,,
01/09/10,19:30,259.8,12.7,106.5,1372.456,,
01/09/10,20:00,259.9,12.7,106.4,1372.457,,
01/09/10,20:30,259.8,12.7,106.5,1372.456,,
01/09/10,21:00,260.0,12.7,106.3,1372.458,,
01/09/10,21:30,260.1,12.7,106.2,1372.459,,
01/09/10,22:00,259.4,12.7,106.9,1372.452,,
01/09/10,22:30,259.3,12.7,107.0,1372.451,,
01/09/10,23:00,259.1,12.7,107.2,1372.449,,
01/09/10,23:30,259.1,12.7,107.2,1372.449,,
01/10/10,0:00,258.9,12.7,107.4,1372.447,,
01/10/10,0:30,259.1,12.7,107.2,1372.449,,
01/10/10,1:00,259.1,12.7,107.2,1372.449,,
01/10/10,1:30,259.4,12.7,106.9,1372.452,,
01/10/10,2:00,259.4,12.7,106.9,1372.452,,
01/10/10,2:30,259.4,12.6,106.9,1372.452,,
01/10/10,3:00,259.6,12.6,106.7,1372.454,,
01/10/10,3:30,259.7,12.7,106.6,1372.455,,
01/10/10,4:00,259.6,12.6,106.7,1372.454,,
01/10/10,4:30,258.9,12.7,107.4,1372.447,,
01/10/10,5:00,259.2,12.6,107.1,1372.450,,
01/10/10,5:30,259.7,12.7,106.6,1372.455,,
01/10/10,6:00,259.7,12.6,106.6,1372.455,,
01/10/10,6:30,259.5,12.7,106.8,1372.453,,
01/10/10,7:00,259.9,12.6,106.4,1372.457,,
01/10/10,7:30,259.3,12.6,107.0,1372.451,,
01/10/10,8:00,259.4,12.6,106.9,1372.452,,
01/10/10,8:30,259.0,12.7,107.3,1372.448,,
01/10/10,9:00,259.7,12.6,106.6,1372.455,,
01/10/10,9:30,260.1,12.6,106.2,1372.459,,
01/10/10,10:00,259.1,12.6,107.2,1372.449,,
01/10/10,10:30,258.8,12.7,107.5,1372.446,,
01/10/10,11:00,258.3,12.7,108.0,1372.441,,
01/10/10,11:30,259.3,12.6,107.0,1372.451,,
01/10/10,12:00,259.6,12.6,106.7,1372.454,,
01/10/10,12:30,259.7,12.6,106.6,1372.455,,
01/10/10,13:00,259.9,12.7,106.4,1372.457,,
01/10/10,13:30,259.6,12.6,106.7,1372.454,,
01/10/10,14:00,260.5,12.6,105.8,1372.463,,
01/10/10,14:30,260.2,12.6,106.1,1372.460,,
01/10/10,15:00,260.4,12.6,105.9,1372.462,,
01/10/10,15:30,260.6,12.6,105.7,1372.464,,
01/10/10,16:00,260.2,12.6,106.1,1372.460,,
01/10/10,16:30,260.2,12.6,106.1,1372.460,,
01/10/10,17:00,260.1,12.7,106.2,1372.459,,
01/10/10,17:30,260.4,12.6,105.9,1372.462,,
01/10/10,18:00,259.7,12.6,106.6,1372.455,,
01/10/10,18:30,260.2,12.6,106.1,1372.460,,
01/10/10,19:00,260.4,12.6,105.9,1372.462,,
01/10/10,19:30,260.0,12.6,106.3,1372.458,,
01/10/10,20:00,260.0,12.6,106.3,1372.458,,
01/10/10,20:30,259.6,12.6,106.7,1372.454,,
01/10/10,21:00,260.1,12.6,106.2,1372.459,,
01/10/10,21:30,259.6,12.6,106.7,1372.454,,
01/10/10,22:00,259.5,12.6,106.8,1372.453,,
01/10/10,22:30,259.8,12.6,106.5,1372.456,,
01/10/10,23:00,259.5,12.6,106.8,1372.453,,
01/10/10,23:30,259.1,12.6,107.2,1372.449,,
01/11/10,0:00,259.0,12.6,107.3,1372.448,,
01/11/10,0:30,259.0,12.6,107.3,1372.448,,
01/11/10,1:00,259.2,12.6,107.1,1372.450,,
01/11/10,1:30,259.1,12.6,107.2,1372.449,,
01/11/10,2:00,259.2,12.6,107.1,1372.450,,
01/11/10,2:30,258.9,12.6,107.4,1372.447,,
01/11/10,3:00,259.5,12.6,106.8,1372.453,,
01/11/10,3:30,259.4,12.6,106.9,1372.452,,
01/11/10,4:00,259.8,12.6,106.5,1372.456,,
01/11/10,4:30,259.8,12.6,106.5,1372.456,,
01/11/10,5:00,260.2,12.7,106.1,1372.460,,
01/11/10,5:30,259.7,12.6,106.6,1372.455,,
01/11/10,6:00,259.8,12.6,106.5,1372.456,,
01/11/10,6:30,260.5,12.6,105.8,1372.463,,
01/11/10,7:00,260.2,12.6,106.1,1372.460,,
01/11/10,7:30,260.6,12.6,105.7,1372.464,,
01/11/10,8:00,259.9,12.6,106.4,1372.457,,
01/11/10,8:30,259.7,12.6,106.6,1372.455,,
01/11/10,9:00,259.7,12.6,106.6,1372.455,,
01/11/10,9:30,259.6,12.6,106.7,1372.454,,
01/11/10,10:00,259.8,12.6,106.5,1372.456,,
01/11/10,10:30,260.0,12.6,106.3,1372.458,,
01/11/10,11:00,259.3,12.6,107.0,1372.451,,
01/11/10,11:30,259.4,12.6,106.9,1372.452,,
01/11/10,12:00,260.1,12.6,106.2,1372.459,,
01/11/10,12:30,259.8,12.6,106.5,1372.456,,
01/11/10,13:00,259.9,12.6,106.4,1372.457,,
01/11/10,13:30,259.7,12.6,106.6,1372.455,,
01/11/10,14:00,259.8,12.6,106.5,1372.456,,
01/11/10,14:30,260.3,12.6,106.0,1372.461,,
01/11/10,15:00,260.2,12.6,106.1,1372.460,,
01/11/10,15:30,260.5,12.6,105.8,1372.463,,
01/11/10,16:00,259.7,12.6,106.6,1372.455,,
01/11/10,16:30,259.7,12.6,106.6,1372.455,,
01/11/10,17:00,259.7,12.6,106.6,1372.455,,
01/11/10,17:30,259.7,12.6,106.6,1372.455,,
01/11/10,18:00,259.7,12.6,106.6,1372.455,,
01/11/10,18:30,259.6,12.6,106.7,1372.454,,
01/11/10,19:00,259.4,12.6,106.9,1372.452,,
01/11/10,19:30,259.0,12.6,107.3,1372.448,,
01/11/10,20:00,259.6,12.6,106.7,1372.454,,
01/11/10,20:30,259.2,12.6,107.1,1372.450,,
01/11/10,21:00,259.2,12.6,107.1,1372.450,,
01/11/10,21:30,259.0,12.6,107.3,1372.448,,
01/11/10,22:00,258.5,12.6,107.8,1372.443,,
01/11/10,22:30,258.9,12.6,107.4,1372.447,,
01/11/10,23:00,258.5,12.6,107.8,1372.443,,
01/11/10,23:30,258.8,12.6,107.5,1372.446,,
01/12/10,0:00,258.8,12.6,107.5,1372.446,,
01/12/10,0:30,259.1,12.6,107.2,1372.449,,
01/12/10,1:00,258.7,12.6,107.6,1372.445,,
01/12/10,1:30,259.3,12.6,107.0,1372.451,,
01/12/10,2:00,258.8,12.6,107.5,1372.446,,
01/12/10,2:30,258.9,12.6,107.4,1372.447,,
01/12/10,3:00,258.4,12.6,107.9,1372.442,,
01/12/10,3:30,258.7,12.6,107.6,1372.445,,
01/12/10,4:00,258.2,12.6,108.1,1372.440,,
01/12/10,4:30,258.5,12.6,107.8,1372.443,,